Regional Weather Roundup
Issued by NWS

Home | Current Version | Previous Version | Graphics & Text | Print | Product List | Glossary On
Versions: 1 2 3 4 5 6 7 8 9 10 11 12 13 14 15 16 17 18 19 20 21 22 23 24 25 26 27 28 29 30 31 32 33 34 35 36 37 38 39 40 41 42 43 44 45 46 47 48 49 50
756
ASUS43 KIND 140709
RWRIN

WEATHER ROUNDUP FOR INDIANA
NATIONAL WEATHER SERVICE INDIANAPOLIS IN
200 AM EST THU DEC 14 2017

NOTE: "FAIR" INDICATES FEW OR NO CLOUDS BELOW 12,000 FEET WITH NO
SIGNIFICANT WEATHER AND/OR OBSTRUCTIONS TO VISIBILITY.

* - STATION DOES NOT REPORT WEATHER SUCH AS PRECIPITATION OR FOG.

+ - STATION NOT QUALITY CONTROLLED BY THE NATIONAL WEATHER SERVICE.
    USE DATA WITH CAUTION...ESPECIALLY DEWPOINT AND RELATIVE
    HUMIDITY OBSERVATIONS.

INZ001>003-010>013-019-020-140800-
NORTHWEST INDIANA

CITY           SKY/WX    TMP DP  RH WIND       PRES   REMARKS
GARY /AIRPORT/ CLOUDY    32  17  55 N25G31    29.81R WCI  18
KNOX *+        CLOUDY    28  23  80 N14       29.75R WCI  17
LA PORTE +     CLOUDY    27  20  76 N18       29.76R WCI  13
MICHIGAN CITY+ CLOUDY    28  19  69 N14G22    29.78R WCI  17
MONTICELLO +   CLOUDY    29  19  66 N20G26    29.76R WCI  17
RENSSELAER +   CLOUDY    32  19  59 NW8G18    29.80R WCI  25
VALPARAISO     CLOUDY    30  20  66 N15G25    29.77R WCI  19

$$

LMZ046-743>745-140800-
SOUTHERN LAKE MICHIGAN

STATION/POSITION TIME  TEMP    WIND        PRES    WAVE
                       AIR SEA DIR/SP/G            HT
                 (UTC) (F)     (DEG/KT/KT) (MB)    (FT)
BURNS HARBOR     0640   30      10/ 22/ 31 1008.8R
MICHIGAN CITY    0640   28     360/ 30/ 35   N/A

$$

INZ004-005-014>016-021>024-140800-
NORTH CENTRAL INDIANA

CITY           SKY/WX    TMP DP  RH WIND       PRES   REMARKS
GOSHEN         MOCLDY    19  14  81 N13       29.73R WCI   6
LOGANSPORT +   CLOUDY    28  21  74 N16       29.76R WCI  17
PERU/GRISSOM   MOCLDY    27  19  74 N14G23    29.74R WCI  15
ROCHESTER +    CLEAR     27  19  74 N14G23    29.75R WCI  15
SOUTH BEND     CLEAR     18  14  84 N13       29.77R WCI   5
WARSAW +       CLOUDY    21  16  79 NW7       29.73R WCI  13

$$

INZ006>009-017-018-025>027-140800-
NORTHEAST INDIANA

CITY           SKY/WX    TMP DP  RH WIND       PRES   REMARKS
AUBURN +       MOCLDY    21  16  79 NW9G20    29.68R WCI  11
FORT WAYNE     MOCLDY    22  16  78 N18G25    29.70R WCI   7
HUNTINGTON +   MOCLDY    22  16  79 NW12G18   29.72R WCI  10
KENDALLVILLE + CLOUDY    19  16  86 NW9G18    29.71R WCI   8

$$

INZ028-029-035-036-043>045-051>053-140800-
WEST CENTRAL INDIANA

CITY           SKY/WX    TMP DP  RH WIND       PRES   REMARKS
CRAWFORDSVL +  CLOUDY    27  19  74 MISG      29.76R
GREENCASTLE +  MOCLDY    28  19  69 NW9G16    29.79R WCI  20
LAFAYETTE      CLOUDY    29  21  72 NW15G21   29.79R WCI  18
TERRE HAUTE    CLEAR     28  18  66 NW14G23   29.82R WCI  17

$$

INZ030>032-037>040-046>048-054>057-064-065-140800-
CENTRAL INDIANA

CITY           SKY/WX    TMP DP  RH WIND       PRES   REMARKS
FRANKFORT +    CLOUDY    31  23  70 NW16G24   29.76R WCI  20
GREENWOOD *+   CLOUDY    33  23  67 NW10G25   29.75R WCI  25
INDIANAPOLIS   CLOUDY    29  19  66 NW16G25   29.76R WCI  17
-EAGLE CREEK   CLOUDY    30  19  63 NW12G22   29.75R WCI  20
KOKOMO +       CLOUDY    28  19  69 N18G26    29.75R WCI  16
MARION +       CLOUDY    27  18  69 N17G24    29.72R WCI  14
MT COMFORT *+  CLOUDY    28  23  80 NW15G24   29.73R WCI  17
SHELBYVILLE    CLOUDY    31  19  61 NW17G28   29.74R WCI  19
ZIONSVILLE +   CLOUDY    28  20  72 NW18G24   29.74R WCI  15

$$

INZ033-034-041-042-049-050-058-059-140800-
EAST CENTRAL INDIANA

CITY           SKY/WX    TMP DP  RH WIND       PRES   REMARKS
MUNCIE         CLOUDY    30  22  72 NW17G26   29.69R WCI  18
RICHMOND +     CLOUDY    28  21  74 NW18G30   29.68R WCI  16

$$

INZ060-061-067>069-081>083-085>088-140800-
SOUTHWEST INDIANA

CITY           SKY/WX    TMP DP  RH WIND       PRES   REMARKS
EVANSVILLE     CLOUDY    38  29  70 N14G20    29.83R WCI  30
HUNTINGBURG +  CLOUDY    36  26  67 NW20G29   29.80R WCI  25
WASHINGTON +   CLOUDY    35  26  69 NW15G23   29.82R WCI  25

$$

INZ062-063-066-070>080-084-089>092-140800-
SOUTH CENTRAL AND SOUTHEAST INDIANA

CITY           SKY/WX    TMP DP  RH WIND       PRES   REMARKS
BEDFORD +      CLOUDY    36  25  64 NW13G20   29.75R WCI  27
BLOOMINGTON    CLOUDY    32  21  64 NW13G23   29.77R WCI  22
MADISON *+     CLOUDY    36  25  64 NW12      29.74R WCI  27
NORTH VERNON + CLOUDY    32  23  69 NW21G30   29.74R WCI  20
SEYMOUR +      CLOUDY    37  23  56 W12G20    29.75R WCI  30

$$





USA.gov is the U.S. government's official web portal to all federal, state and local government web resources and services.